User: anonymous   Login
Location: ?????????
(38.0736°N, 23.2119°E)
Time: 23:05:06
(UTC+00:00)
Language:

Cosmos 540 Rocket - Orbit

View from above orbital plane
View from above orbital plane
View from above satellite
View from above satellite

Ground track
Ground track

The orbit data is extracted from the following two-line orbital elements,

1 06324U 72104B   24168.96152179  .00000422  00000-0  13015-3 0  9991
2 06324  74.0783  46.0151 0009901 247.1245 112.8867 14.44381404704251
Epoch (UTC): 16 June 2024 23:04:35
Eccentricity: 0.0009901
inclination: 74.0783°
perigee height: 737 km
apogee height: 751 km
right ascension of ascending node: 46.0151°
argument of perigee: 247.1245°
revolutions per day: 14.44381404
mean anomaly at epoch: 112.8867°
orbit number at epoch: 70425

The dashed part of the orbit path shows where the satellite is in the earth's shadow,  

DLR